When you browse on this site, cookies collect data to enhance your experience and personalize the content and advertising you see.
Visit our Privacy Policy to learn more. By continuing to use the site, you agree to this use of cookies and data.
  • In Slovakia
  • List of Countries
  • For 7 days
  • Water Temperature
  • Satellite Maps
  • Weather Map
  • Weather Widgets
  • user-avatar
    Login

    Hourly Weather Galata

    Today, 20 January, Sunday

    Time Temperature Precipitation Wind Pressure Humidity
    00:00 +2°C° 0.2 mm 5 mps 760 mmHg 91%
    01:00 +3°C° 0.2 mm 5 mps 760 mmHg 92%
    02:00 +3°C° 0 mm 5 mps 760 mmHg 92%
    03:00 +3°C° 0.1 mm 5 mps 759 mmHg 93%
    04:00 +3°C° 0.1 mm 5 mps 759 mmHg 93%
    05:00 +4°C° 0.1 mm 4 mps 759 mmHg 94%
    06:00 +3°C° 0.1 mm 5 mps 758 mmHg 95%
    07:00 +5°C° 0.1 mm 5 mps 758 mmHg 95%
    08:00 +5°C° 0 mm 4 mps 758 mmHg 96%
    09:00 +5°C° 0 mm 4 mps 758 mmHg 96%
    10:00 +6°C° 0 mm 4 mps 758 mmHg 96%
    11:00 +6°C° 0 mm 4 mps 757 mmHg 96%
    12:00 +6°C° 0 mm 4 mps 757 mmHg 94%
    13:00 +7°C° 0 mm 4 mps 756 mmHg 93%
    14:00 +8°C° 0 mm 3 mps 756 mmHg 93%
    15:00 +8°C° 0.1 mm 3 mps 756 mmHg 94%
    16:00 +8°C° 0.1 mm 3 mps 755 mmHg 95%
    17:00 +8°C° 0.1 mm 2 mps 755 mmHg 96%
    18:00 +8°C° 0 mm 2 mps 755 mmHg 96%
    19:00 +8°C° 0 mm 3 mps 755 mmHg 95%
    20:00 +8°C° 0 mm 3 mps 755 mmHg 95%
    21:00 +8°C° 0.1 mm 3 mps 755 mmHg 95%
    22:00 +7°C° 0.1 mm 3 mps 755 mmHg 95%
    23:00 +7°C° 0.1 mm 3 mps 754 mmHg 94%

    Tomorrow, 21 January, Monday

    Time Temperature Precipitation Wind Pressure Humidity
    00:00 +7°C° 0.1 mm 3 mps 754 mmHg 94%
    01:00 +5°C° 0.1 mm 3 mps 754 mmHg 94%
    02:00 +5°C° 0.1 mm 3 mps 754 mmHg 94%
    03:00 +4°C° 0 mm 4 mps 755 mmHg 93%
    04:00 +2°C° 0 mm 5 mps 755 mmHg 92%
    05:00 +2°C° 0 mm 6 mps 755 mmHg 90%
    06:00 +1°C° 0 mm 5 mps 756 mmHg 90%
    07:00 +1°C° 0 mm 5 mps 756 mmHg 89%
    08:00 +1°C° 0 mm 5 mps 756 mmHg 88%
    09:00 +2°C° 0 mm 5 mps 757 mmHg 85%
    10:00 +2°C° 0 mm 5 mps 757 mmHg 81%
    11:00 +3°C° 0 mm 6 mps 758 mmHg 77%
    12:00 +3°C° 0 mm 5 mps 758 mmHg 75%
    13:00 +3°C° 0 mm 5 mps 758 mmHg 74%
    14:00 +5°C° 0 mm 4 mps 758 mmHg 72%
    15:00 +4°C° 0 mm 4 mps 758 mmHg 74%
    16:00 +3°C° 0 mm 4 mps 759 mmHg 75%
    17:00 +3°C° 0 mm 4 mps 759 mmHg 77%
    18:00 +1°C° 0 mm 4 mps 759 mmHg 79%
    19:00 0°C° 0 mm 4 mps 760 mmHg 81%
    20:00 0°C° 0 mm 4 mps 760 mmHg 83%
    21:00 0°C° 0 mm 3 mps 760 mmHg 83%
    22:00 0°C° 0 mm 3 mps 760 mmHg 84%
    23:00 0°C° 0 mm 3 mps 761 mmHg 84%

    Day after tomorrow, 22 January, Tuesday

    Time Temperature Precipitation Wind Pressure Humidity
    00:00 0°C° 0 mm 3 mps 761 mmHg 85%
    01:00 0°C° 0 mm 3 mps 761 mmHg 86%
    02:00 0°C° 0 mm 3 mps 761 mmHg 87%
    03:00 +1°C° 0 mm 2 mps 760 mmHg 88%
    04:00 +1°C° 0 mm 2 mps 760 mmHg 89%
    05:00 +1°C° 0 mm 2 mps 760 mmHg 90%
    06:00 0°C° 0 mm 3 mps 760 mmHg 89%
    07:00 +1°C° 0 mm 3 mps 760 mmHg 88%
    08:00 +1°C° 0 mm 3 mps 760 mmHg 87%
    09:00 +1°C° 0 mm 3 mps 760 mmHg 86%
    10:00 +1°C° 0 mm 4 mps 759 mmHg 84%
    11:00 +1°C° 0 mm 4 mps 759 mmHg 83%
    12:00 +3°C° 0 mm 4 mps 759 mmHg 82%
    13:00 +3°C° 0 mm 4 mps 758 mmHg 82%
    14:00 +3°C° 0 mm 4 mps 757 mmHg 82%
    15:00 +3°C° 0 mm 4 mps 757 mmHg 84%
    16:00 +3°C° 0 mm 4 mps 756 mmHg 85%
    17:00 +2°C° 0 mm 5 mps 756 mmHg 87%
    18:00 +2°C° 0.1 mm 5 mps 756 mmHg 88%
    19:00 +2°C° 0.1 mm 5 mps 755 mmHg 90%
    20:00 +3°C° 0.1 mm 5 mps 755 mmHg 91%
    21:00 +3°C° 0.1 mm 5 mps 755 mmHg 91%
    22:00 +3°C° 0.1 mm 6 mps 754 mmHg 92%
    23:00 +4°C° 0.1 mm 6 mps 754 mmHg 93%

    23 January, Wednesday

    Time Temperature Precipitation Wind Pressure Humidity
    00:00 +4°C° 0 mm 6 mps 753 mmHg 93%
    01:00 +4°C° 0 mm 6 mps 752 mmHg 93%
    02:00 +4°C° 0 mm 6 mps 752 mmHg 92%
    03:00 +4°C° 0.9 mm 7 mps 751 mmHg 94%
    04:00 +4°C° 0.9 mm 7 mps 750 mmHg 96%
    05:00 +5°C° 0.9 mm 7 mps 749 mmHg 97%
    06:00 +5°C° 2.4 mm 7 mps 749 mmHg 96%
    07:00 +5°C° 2.4 mm 7 mps 749 mmHg 94%
    08:00 +6°C° 2.4 mm 7 mps 748 mmHg 92%
    09:00 +8°C° 0 mm 7 mps 748 mmHg 88%
    10:00 +9°C° 0 mm 8 mps 748 mmHg 84%
    11:00 +10°C° 0 mm 8 mps 748 mmHg 80%
    12:00 +11°C° 0 mm 8 mps 747 mmHg 76%
    13:00 +11°C° 0 mm 8 mps 747 mmHg 71%
    14:00 +12°C° 0 mm 8 mps 747 mmHg 67%
    15:00 +12°C° 0 mm 8 mps 747 mmHg 69%
    16:00 +11°C° 0 mm 7 mps 747 mmHg 71%
    17:00 +10°C° 0 mm 7 mps 747 mmHg 74%
    18:00 +10°C° 0 mm 7 mps 747 mmHg 76%
    19:00 +9°C° 0 mm 7 mps 748 mmHg 79%
    20:00 +9°C° 0 mm 7 mps 748 mmHg 82%
    21:00 +9°C° 0 mm 7 mps 748 mmHg 84%
    22:00 +9°C° 0 mm 7 mps 748 mmHg 86%
    23:00 +9°C° 0 mm 7 mps 749 mmHg 88%

    24 January, Thursday

    Time Temperature Precipitation Wind Pressure Humidity
    00:00 +8°C° 0 mm 6 mps 749 mmHg 89%
    01:00 +8°C° 0 mm 6 mps 749 mmHg 89%
    02:00 +8°C° 0 mm 5 mps 749 mmHg 89%
    03:00 +8°C° 0.2 mm 5 mps 748 mmHg 92%
    04:00 +7°C° 0.2 mm 4 mps 748 mmHg 94%
    05:00 +7°C° 0.2 mm 4 mps 748 mmHg 97%
    06:00 +7°C° 0.2 mm 4 mps 748 mmHg 97%
    07:00 +7°C° 0.2 mm 4 mps 748 mmHg 96%
    08:00 +7°C° 0.2 mm 4 mps 748 mmHg 96%
    09:00 +8°C° 0 mm 4 mps 748 mmHg 92%
    10:00 +9°C° 0 mm 5 mps 748 mmHg 88%
    11:00 +9°C° 0 mm 5 mps 748 mmHg 83%
    12:00 +10°C° 0 mm 5 mps 747 mmHg 80%
    13:00 +10°C° 0 mm 5 mps 747 mmHg 77%
    14:00 +10°C° 0 mm 5 mps 746 mmHg 73%
    15:00 +9°C° 0 mm 5 mps 746 mmHg 78%
    16:00 +8°C° 0 mm 5 mps 746 mmHg 82%
    17:00 +7°C° 0 mm 4 mps 746 mmHg 86%
    18:00 +7°C° 0 mm 5 mps 746 mmHg 87%
    19:00 +7°C° 0 mm 6 mps 746 mmHg 89%
    20:00 +7°C° 0 mm 6 mps 746 mmHg 91%
    21:00 +5°C° 0 mm 6 mps 746 mmHg 91%
    22:00 +6°C° 0 mm 5 mps 746 mmHg 91%
    23:00 +6°C° 0 mm 5 mps 746 mmHg 91%

    25 January, Friday

    Time Temperature Precipitation Wind Pressure Humidity
    00:00 +5°C° 0 mm 5 mps 746 mmHg 92%
    01:00 +5°C° 0 mm 5 mps 746 mmHg 92%
    02:00 +5°C° 0 mm 5 mps 746 mmHg 93%
    03:00 +5°C° 0 mm 5 mps 746 mmHg 93%
    04:00 +5°C° 0 mm 5 mps 746 mmHg 94%
    05:00 +5°C° 0 mm 5 mps 746 mmHg 94%
    06:00 +5°C° 0 mm 5 mps 746 mmHg 94%
    07:00 +5°C° 0 mm 5 mps 746 mmHg 95%
    08:00 +5°C° 0 mm 4 mps 746 mmHg 95%
    09:00 +5°C° 0.5 mm 4 mps 747 mmHg 94%
    10:00 +7°C° 0.5 mm 3 mps 747 mmHg 94%
    11:00 +7°C° 0.5 mm 2 mps 747 mmHg 93%
    12:00 +8°C° 0.1 mm 2 mps 747 mmHg 93%
    13:00 +9°C° 0.1 mm 2 mps 746 mmHg 92%
    14:00 +9°C° 0.1 mm 2 mps 746 mmHg 92%
    15:00 +9°C° 0 mm 2 mps 746 mmHg 93%
    16:00 +9°C° 0 mm 3 mps 746 mmHg 93%
    17:00 +9°C° 0 mm 3 mps 745 mmHg 93%
    18:00 +9°C° 0.1 mm 3 mps 745 mmHg 93%
    19:00 +8°C° 0.1 mm 3 mps 745 mmHg 93%
    20:00 +7°C° 0.1 mm 4 mps 745 mmHg 93%
    21:00 +7°C° 1.5 mm 4 mps 745 mmHg 94%
    22:00 +7°C° 1.5 mm 5 mps 745 mmHg 95%
    23:00 +7°C° 1.5 mm 5 mps 745 mmHg 96%
    Show more